Zurück zum Katalog

STARLINK-5594

AktivKommunikationVLEO
NORAD 55742·PAYLOAD·🇺🇸 United States

Gestartet Mar 3, 2023 von Vandenberg Space Force Base

Loading…

Nächste Überflüge (nächste 24 Stunden)

TLE

AktuellSource: CelesTrak SupGP

Epoche: Sep 14, 2026, 20:37 UTC

1 55742C 23028B   26257.85951389  .00686990  00000+0  55615-1 0  2575
2 55742  70.0000 127.6342 0002983 269.3106  49.7747 14.99318320    15

Verfolge STARLINK-5594 in Echtzeit mit AllMySat

Download on the App Store